Вернуться в каталог

FENGYUN 1C DEB

АктивенPO
NORAD 33638·DEBRIS·🇨🇳 China

Запущен May 10, 1999 с Taiyuan Satellite Launch Center

Loading…

Ближайшие Пролёты (ближайшие 24 часа)

TLE

УстаревающийSource: Space-Track

Эпоха: Sep 5, 2026, 21:07 UTC

1 33638U 99025DDX 26248.88001309  .00000400  00000-0  39278-3 0  9995
2 33638  98.4437 112.4955 0262290 279.6776  77.4839 13.69903915645720

Отслеживайте FENGYUN 1C DEB в реальном времени с AllMySat

Download on the App Store